P/2014 W4 ( PanSTARRS )

Japanese version
Home page
Updated on May 29, 2016

---------------------------------------------------------------------

* Profile

Discovery Date November 18, 2014
Magnitude 20.7 mag
Discoverer Pan-STARRS 1 telescope (Haleakala)

* Pictures

* Orbital Elements

Epoch 2016 Jan. 13.0 TT = JDT 2457400.5
T 2015 Dec. 29.66943 TT                                 MPCW
q   4.2610611            (2000.0)            P               Q
n   0.05830124     Peri.   67.43355     -0.16921199     -0.97487906
a   6.5869470      Node    33.35274     +0.77950495     -0.22230645
e   0.3531053      Incl.   15.27440     +0.60310807     +0.01380807
P  16.91
From 66 observations 2014 Oct. 25-2016 May 5, mean residual 0".3.

* Magnitudes Graph

        m1 = 10.5 + 5 log d + 10.0 log r

---------------------------------------------------------------------

The orbital elements are published on M.P.E.C. 2016-K18.
The magnitudes graphs are made with Comet for Windows.

---------------------------------------------------------------------

Copyright(C) Seiichi Yoshida (comet@aerith.net). All rights reserved.